Time,TemperatureF,DewpointF,PressureIn,WindDirection,WindDirectionDegrees,WindSpeedMPH,WindSpeedGustMPH,Humidity,HourlyPrecipIn,Conditions,Clouds,dailyrainin,SolarRadiationWatts/m^2,SoftwareType,DateUTC
2013-09-07 00:03:00,72.9,71.6,29.83,SSE,161,0.0,0.0,96,0.00,,,0.00,0.0,meteohub,2013-09-07 05:03:00,
2013-09-07 00:08:00,72.7,71.4,29.83,SSE,161,0.0,0.0,96,0.00,,,0.00,0.0,meteohub,2013-09-07 05:08:00,
2013-09-07 00:13:00,72.7,71.4,29.83,SSE,161,0.0,0.0,96,0.00,,,0.00,0.0,meteohub,2013-09-07 05:13:00,
2013-09-07 00:18:00,72.3,71.1,29.83,SSE,161,0.0,0.0,96,0.00,,,0.00,0.0,meteohub,2013-09-07 05:18:00,
2013-09-07 00:23:00,71.8,70.3,29.83,SSE,161,0.0,0.0,95,0.00,,,0.00,0.0,meteohub,2013-09-07 05:23:00,
2013-09-07 00:28:00,71.8,70.5,29.83,SSE,161,0.0,0.0,96,0.00,,,0.00,0.0,meteohub,2013-09-07 05:28:00,
2013-09-07 00:33:00,72.0,70.7,29.83,SSE,161,0.0,0.0,96,0.00,,,0.00,0.0,meteohub,2013-09-07 05:33:00,
2013-09-07 00:38:00,72.0,70.7,29.83,SSE,161,0.0,0.0,96,0.00,,,0.00,0.0,meteohub,2013-09-07 05:38:00,
2013-09-07 00:43:00,71.8,70.5,29.83,SSE,161,0.0,0.0,96,0.00,,,0.00,0.0,meteohub,2013-09-07 05:43:00,
2013-09-07 00:48:00,71.4,70.2,29.83,SSE,161,0.0,0.0,96,0.00,,,0.00,0.0,meteohub,2013-09-07 05:48:00,
2013-09-07 00:53:00,71.8,70.9,29.84,SSE,161,0.0,0.0,97,0.00,,,0.00,0.0,meteohub,2013-09-07 05:53:00,
2013-09-07 00:58:00,71.8,70.9,29.84,SSE,161,0.0,0.0,97,0.00,,,0.00,0.0,meteohub,2013-09-07 05:58:00,
2013-09-07 01:03:00,71.8,70.9,29.84,SSE,161,0.0,0.0,97,0.00,,,0.00,0.0,meteohub,2013-09-07 06:03:00,
2013-09-07 01:08:00,71.2,70.0,29.84,SSE,161,0.0,0.0,96,0.00,,,0.00,0.0,meteohub,2013-09-07 06:08:00,
2013-09-07 01:13:00,71.2,70.0,29.84,SSE,161,0.0,0.0,96,0.00,,,0.00,0.0,meteohub,2013-09-07 06:13:00,
2013-09-07 01:18:00,71.1,70.2,29.84,SSE,161,0.0,0.0,97,0.00,,,0.00,0.0,meteohub,2013-09-07 06:18:00,
2013-09-07 01:23:00,71.1,70.2,29.84,SSE,161,0.0,0.0,97,0.00,,,0.00,0.0,meteohub,2013-09-07 06:23:00,
2013-09-07 01:28:00,70.9,69.6,29.84,SSE,161,0.0,0.0,96,0.00,,,0.00,0.0,meteohub,2013-09-07 06:28:00,
2013-09-07 01:33:00,70.3,69.1,29.84,SSE,161,0.0,0.0,96,0.00,,,0.00,0.0,meteohub,2013-09-07 06:33:00,
2013-09-07 01:38:00,70.2,68.9,29.84,SSE,161,0.0,0.0,96,0.00,,,0.00,0.0,meteohub,2013-09-07 06:38:00,
2013-09-07 01:43:00,70.0,68.7,29.84,SSE,161,0.0,0.0,96,0.00,,,0.00,0.0,meteohub,2013-09-07 06:43:00,
2013-09-07 01:48:00,70.2,69.3,29.84,SSE,161,0.0,0.0,97,0.00,,,0.00,0.0,meteohub,2013-09-07 06:48:00,
2013-09-07 01:53:00,70.0,69.1,29.84,SSE,161,0.0,0.0,97,0.00,,,0.00,0.0,meteohub,2013-09-07 06:53:00,
2013-09-07 01:58:00,69.6,68.7,29.84,SSE,161,0.0,0.0,97,0.00,,,0.00,0.0,meteohub,2013-09-07 06:58:00,
2013-09-07 02:03:00,69.4,68.2,29.84,SSE,161,0.0,0.0,96,0.00,,,0.00,0.0,meteohub,2013-09-07 07:03:00,
2013-09-07 02:09:00,69.3,68.4,29.84,SSE,161,0.0,0.0,97,0.00,,,0.00,0.0,meteohub,2013-09-07 07:09:00,
2013-09-07 02:14:00,69.3,68.4,29.84,SSE,161,0.0,0.0,97,0.00,,,0.00,0.0,meteohub,2013-09-07 07:14:00,
2013-09-07 02:19:00,69.3,68.4,29.84,SSE,161,0.0,0.0,97,0.00,,,0.00,0.0,meteohub,2013-09-07 07:19:00,
2013-09-07 02:24:00,69.3,68.4,29.84,SSE,161,0.0,0.0,97,0.00,,,0.00,0.0,meteohub,2013-09-07 07:24:00,
2013-09-07 02:29:00,69.3,68.4,29.84,SSE,161,0.0,0.0,97,0.00,,,0.00,0.0,meteohub,2013-09-07 07:29:00,
2013-09-07 02:34:00,69.3,68.4,29.84,SSE,161,0.0,0.0,97,0.00,,,0.00,0.0,meteohub,2013-09-07 07:34:00,
2013-09-07 02:39:00,69.3,68.4,29.84,SSE,161,0.0,0.0,97,0.00,,,0.00,0.0,meteohub,2013-09-07 07:39:00,
2013-09-07 02:44:00,69.3,68.4,29.84,SSE,161,0.0,0.0,97,0.00,,,0.00,0.0,meteohub,2013-09-07 07:44:00,
2013-09-07 02:49:00,69.3,68.4,29.84,SSE,161,0.0,0.0,97,0.00,,,0.00,0.0,meteohub,2013-09-07 07:49:00,
2013-09-07 02:54:00,69.1,68.2,29.84,SSE,161,0.0,0.0,97,0.00,,,0.00,0.0,meteohub,2013-09-07 07:54:00,
2013-09-07 02:59:00,68.9,68.0,29.84,SSE,161,0.0,0.0,97,0.00,,,0.00,0.0,meteohub,2013-09-07 07:59:00,
2013-09-07 03:04:00,68.9,68.0,29.84,SSE,161,0.0,0.0,97,0.00,,,0.00,0.0,meteohub,2013-09-07 08:04:00,
2013-09-07 03:09:00,68.9,68.0,29.85,SSE,161,0.0,0.0,97,0.00,,,0.00,0.0,meteohub,2013-09-07 08:09:00,
2013-09-07 03:14:00,68.9,68.0,29.85,SSE,161,0.0,0.0,97,0.00,,,0.00,0.0,meteohub,2013-09-07 08:14:00,
2013-09-07 03:19:00,68.7,67.8,29.85,SSE,161,0.0,0.0,97,0.00,,,0.00,0.0,meteohub,2013-09-07 08:19:00,
2013-09-07 03:24:00,68.9,68.0,29.85,SSE,161,0.0,0.0,97,0.00,,,0.00,0.0,meteohub,2013-09-07 08:24:00,
2013-09-07 03:29:00,69.1,68.5,29.85,SSE,161,0.0,0.0,98,0.00,,,0.00,0.0,meteohub,2013-09-07 08:29:00,
2013-09-07 03:34:00,69.1,68.5,29.85,SSE,161,0.0,0.0,98,0.00,,,0.00,0.0,meteohub,2013-09-07 08:34:00,
2013-09-07 03:39:00,69.1,68.5,29.85,SSE,161,0.0,0.0,98,0.00,,,0.00,0.0,meteohub,2013-09-07 08:39:00,
2013-09-07 03:44:00,69.1,68.5,29.85,SSE,161,0.0,0.0,98,0.00,,,0.00,0.0,meteohub,2013-09-07 08:44:00,
2013-09-07 03:49:00,68.9,68.0,29.85,SSE,161,0.0,0.0,97,0.00,,,0.00,0.0,meteohub,2013-09-07 08:49:00,
2013-09-07 03:54:00,68.7,68.2,29.85,SSE,161,0.0,0.0,98,0.00,,,0.00,0.0,meteohub,2013-09-07 08:54:00,
2013-09-07 03:59:00,68.7,68.2,29.85,SSE,161,0.0,0.0,98,0.00,,,0.00,0.0,meteohub,2013-09-07 08:59:00,
2013-09-07 04:04:00,68.9,68.4,29.85,SSE,161,0.0,0.0,98,0.00,,,0.00,0.0,meteohub,2013-09-07 09:04:00,
2013-09-07 04:09:00,68.9,68.4,29.85,SSE,161,0.0,0.0,98,0.00,,,0.00,0.0,meteohub,2013-09-07 09:09:00,
2013-09-07 04:14:00,68.7,68.2,29.85,SSE,161,0.0,0.0,98,0.00,,,0.00,0.0,meteohub,2013-09-07 09:14:00,
2013-09-07 04:19:00,68.7,68.2,29.84,SSE,161,0.0,0.0,98,0.00,,,0.00,0.0,meteohub,2013-09-07 09:19:00,
2013-09-07 04:24:00,68.5,68.0,29.85,SSE,161,0.0,0.0,98,0.00,,,0.00,0.0,meteohub,2013-09-07 09:24:00,
2013-09-07 04:29:00,68.5,68.0,29.85,SSE,161,0.0,0.0,98,0.00,,,0.00,0.0,meteohub,2013-09-07 09:29:00,
2013-09-07 04:34:00,68.2,67.3,29.85,SSE,161,0.0,0.0,97,0.00,,,0.00,0.0,meteohub,2013-09-07 09:34:00,
2013-09-07 04:39:00,68.2,67.6,29.84,SSE,161,0.0,0.0,98,0.00,,,0.00,0.0,meteohub,2013-09-07 09:39:00,
2013-09-07 04:44:00,68.4,67.8,29.85,SSE,161,0.0,0.0,98,0.00,,,0.00,0.0,meteohub,2013-09-07 09:44:00,
2013-09-07 04:49:00,68.4,67.8,29.84,SSE,161,0.0,0.0,98,0.00,,,0.00,0.0,meteohub,2013-09-07 09:49:00,
2013-09-07 04:54:00,68.4,67.8,29.84,SSE,161,0.0,0.0,98,0.00,,,0.00,0.0,meteohub,2013-09-07 09:54:00,
2013-09-07 04:59:00,68.4,67.8,29.84,SSE,161,0.0,0.0,98,0.00,,,0.00,0.0,meteohub,2013-09-07 09:59:00,
2013-09-07 05:04:00,68.4,67.8,29.84,SSE,161,0.0,0.0,98,0.00,,,0.00,0.0,meteohub,2013-09-07 10:04:00,
2013-09-07 05:10:00,68.5,68.0,29.84,SSE,161,0.0,0.0,98,0.00,,,0.00,0.0,meteohub,2013-09-07 10:10:00,
2013-09-07 05:15:00,68.2,67.6,29.85,SSE,161,0.0,0.0,98,0.00,,,0.00,0.0,meteohub,2013-09-07 10:15:00,
2013-09-07 05:20:00,68.2,67.6,29.85,SSE,161,0.0,0.0,98,0.00,,,0.00,0.0,meteohub,2013-09-07 10:20:00,
2013-09-07 05:25:00,68.2,67.6,29.85,SSE,161,0.0,0.0,98,0.00,,,0.00,0.0,meteohub,2013-09-07 10:25:00,
2013-09-07 05:30:00,68.0,67.5,29.85,SSE,161,0.0,0.0,98,0.00,,,0.00,0.0,meteohub,2013-09-07 10:30:00,
2013-09-07 05:35:00,67.8,67.3,29.85,SSE,161,0.0,0.0,98,0.00,,,0.00,0.0,meteohub,2013-09-07 10:35:00,
2013-09-07 05:40:00,67.8,67.3,29.86,SSE,161,0.0,0.0,98,0.00,,,0.00,0.0,meteohub,2013-09-07 10:40:00,
2013-09-07 05:45:00,67.6,67.1,29.86,SSE,161,0.0,0.0,98,0.00,,,0.00,0.0,meteohub,2013-09-07 10:45:00,
2013-09-07 05:50:00,67.5,66.9,29.86,SSE,161,0.0,0.0,98,0.00,,,0.00,0.0,meteohub,2013-09-07 10:50:00,
2013-09-07 05:55:00,67.3,66.7,29.86,SSE,161,0.0,0.0,98,0.00,,,0.00,0.0,meteohub,2013-09-07 10:55:00,
2013-09-07 06:00:00,67.1,66.6,29.86,SSE,161,0.0,0.0,98,0.00,,,0.00,0.0,meteohub,2013-09-07 11:00:00,
2013-09-07 06:05:00,66.9,66.4,29.87,SSE,161,0.0,0.0,98,0.00,,,0.00,0.0,meteohub,2013-09-07 11:05:00,
2013-09-07 06:10:00,66.9,66.4,29.87,SSE,161,0.0,0.0,98,0.00,,,0.00,0.0,meteohub,2013-09-07 11:10:00,
2013-09-07 06:15:00,66.9,66.4,29.87,SSE,161,0.0,0.0,98,0.00,,,0.00,0.0,meteohub,2013-09-07 11:15:00,
2013-09-07 06:20:00,66.9,66.4,29.87,SSE,161,0.0,0.0,98,0.00,,,0.00,0.0,meteohub,2013-09-07 11:20:00,
2013-09-07 06:25:00,67.1,66.6,29.87,SSE,161,0.0,0.0,98,0.00,,,0.00,0.0,meteohub,2013-09-07 11:25:00,
2013-09-07 06:30:00,67.5,66.9,29.87,SSE,161,0.0,0.0,98,0.00,,,0.00,0.0,meteohub,2013-09-07 11:30:00,
2013-09-07 06:35:00,67.5,66.9,29.87,West,279,0.0,0.0,98,0.00,,,0.00,0.0,meteohub,2013-09-07 11:35:00,
2013-09-07 06:40:00,67.5,66.9,29.87,West,279,0.0,1.0,98,0.00,,,0.00,0.0,meteohub,2013-09-07 11:40:00,
2013-09-07 06:45:00,67.5,66.9,29.87,West,279,0.0,1.0,98,0.00,,,0.00,0.0,meteohub,2013-09-07 11:45:00,
2013-09-07 06:50:00,67.3,66.7,29.87,West,279,0.0,1.0,98,0.00,,,0.00,0.0,meteohub,2013-09-07 11:50:00,
2013-09-07 06:55:00,67.3,66.7,29.87,West,279,0.0,0.0,98,0.00,,,0.00,0.0,meteohub,2013-09-07 11:55:00,
2013-09-07 07:00:00,67.3,66.7,29.87,West,279,0.0,0.0,98,0.00,,,0.00,5.0,meteohub,2013-09-07 12:00:00,
2013-09-07 07:05:00,67.3,66.7,29.87,WNW,290,0.0,0.0,98,0.00,,,0.00,7.0,meteohub,2013-09-07 12:05:00,
2013-09-07 07:10:00,67.3,66.7,29.87,WNW,290,0.0,1.0,98,0.00,,,0.00,9.0,meteohub,2013-09-07 12:10:00,
2013-09-07 07:15:00,67.3,66.7,29.88,WNW,290,0.0,1.0,98,0.00,,,0.00,11.0,meteohub,2013-09-07 12:15:00,
2013-09-07 07:20:00,67.3,66.7,29.88,WNW,290,0.0,1.0,98,0.00,,,0.00,14.0,meteohub,2013-09-07 12:20:00,
2013-09-07 07:25:00,67.3,66.7,29.88,WNW,290,0.0,0.0,98,0.00,,,0.00,16.0,meteohub,2013-09-07 12:25:00,
2013-09-07 07:30:00,67.3,66.7,29.88,WNW,290,0.0,0.0,98,0.00,,,0.00,18.0,meteohub,2013-09-07 12:30:00,
2013-09-07 07:35:00,67.3,66.7,29.88,WNW,290,0.0,0.0,98,0.00,,,0.00,18.0,meteohub,2013-09-07 12:35:00,
2013-09-07 07:40:00,67.5,66.9,29.89,WNW,290,0.0,0.0,98,0.00,,,0.00,18.0,meteohub,2013-09-07 12:40:00,
2013-09-07 07:45:00,67.5,66.9,29.89,WNW,290,0.0,1.0,98,0.00,,,0.00,19.0,meteohub,2013-09-07 12:45:00,
2013-09-07 07:50:00,67.5,66.9,29.89,WNW,290,0.0,1.0,98,0.00,,,0.00,21.0,meteohub,2013-09-07 12:50:00,
2013-09-07 07:55:00,67.5,66.9,29.89,WNW,290,0.0,1.0,98,0.00,,,0.00,23.0,meteohub,2013-09-07 12:55:00,
2013-09-07 08:00:00,67.6,67.1,29.89,WNW,290,0.0,1.0,98,0.00,,,0.00,26.0,meteohub,2013-09-07 13:00:00,
2013-09-07 08:05:00,67.8,67.3,29.88,NE,44,0.0,2.0,98,0.00,,,0.00,32.0,meteohub,2013-09-07 13:05:00,
2013-09-07 08:10:00,67.8,67.3,29.88,NE,43,0.0,2.0,98,0.00,,,0.00,35.0,meteohub,2013-09-07 13:10:00,
2013-09-07 08:15:00,68.0,67.5,29.89,NE,43,0.0,2.0,98,0.00,,,0.00,37.0,meteohub,2013-09-07 13:15:00,
2013-09-07 08:21:00,68.2,67.6,29.89,NE,43,0.0,2.0,98,0.00,,,0.00,37.0,meteohub,2013-09-07 13:21:00,
2013-09-07 08:26:00,68.2,67.6,29.89,NE,43,0.0,0.0,98,0.00,,,0.00,39.0,meteohub,2013-09-07 13:26:00,
2013-09-07 08:31:00,68.4,67.8,29.89,NE,43,0.0,0.0,98,0.00,,,0.00,42.0,meteohub,2013-09-07 13:31:00,
2013-09-07 08:36:00,68.7,68.4,29.89,NE,43,0.0,1.0,99,0.00,,,0.00,46.0,meteohub,2013-09-07 13:36:00,
2013-09-07 08:41:00,69.3,68.9,29.89,NE,42,0.0,1.0,99,0.00,,,0.00,49.0,meteohub,2013-09-07 13:41:00,
2013-09-07 08:46:00,69.6,69.1,29.89,NNE,29,0.0,1.0,98,0.00,,,0.00,49.0,meteohub,2013-09-07 13:46:00,
2013-09-07 08:51:00,70.2,69.8,29.89,NNE,32,0.0,1.0,99,0.00,,,0.00,56.0,meteohub,2013-09-07 13:51:00,
2013-09-07 08:56:00,70.5,70.2,29.89,NNE,32,0.0,1.0,99,0.00,,,0.00,54.0,meteohub,2013-09-07 13:56:00,
2013-09-07 09:01:00,70.9,70.3,29.90,NNE,32,0.0,1.0,98,0.00,,,0.00,53.0,meteohub,2013-09-07 14:01:00,
2013-09-07 09:06:00,71.2,70.7,29.90,NNW,345,0.0,1.0,98,0.00,,,0.00,51.0,meteohub,2013-09-07 14:06:00,
2013-09-07 09:11:00,71.8,71.2,29.90,NNW,345,0.0,1.0,98,0.00,,,0.00,56.0,meteohub,2013-09-07 14:11:00,
2013-09-07 09:16:00,72.1,71.2,29.90,NNW,345,0.0,1.0,97,0.00,,,0.00,56.0,meteohub,2013-09-07 14:16:00,
2013-09-07 09:21:00,72.7,71.4,29.90,North,349,0.0,1.0,96,0.00,,,0.00,47.0,meteohub,2013-09-07 14:21:00,
2013-09-07 09:26:00,73.0,71.6,29.90,NNE,26,2.0,2.0,95,0.00,,,0.00,60.0,meteohub,2013-09-07 14:26:00,
2013-09-07 09:31:00,73.2,71.4,29.90,NNE,22,1.0,2.0,94,0.00,,,0.00,74.0,meteohub,2013-09-07 14:31:00,
2013-09-07 09:36:00,73.8,72.0,29.90,NNE,18,0.0,2.0,94,0.00,,,0.00,67.0,meteohub,2013-09-07 14:36:00,
2013-09-07 09:41:00,74.1,71.6,29.90,NNE,17,0.0,2.0,92,0.00,,,0.00,67.0,meteohub,2013-09-07 14:41:00,
2013-09-07 09:46:00,74.5,72.0,29.90,NW,313,0.0,1.0,92,0.00,,,0.00,56.0,meteohub,2013-09-07 14:46:00,
2013-09-07 09:51:00,74.8,72.0,29.90,NW,313,0.0,3.0,91,0.00,,,0.00,67.0,meteohub,2013-09-07 14:51:00,
2013-09-07 09:56:00,75.0,72.1,29.90,NW,319,0.0,3.0,91,0.00,,,0.00,77.0,meteohub,2013-09-07 14:56:00,
2013-09-07 10:01:00,75.6,72.5,29.90,NW,322,0.0,3.0,90,0.00,,,0.00,77.0,meteohub,2013-09-07 15:01:00,
2013-09-07 10:06:00,76.5,72.7,29.90,NE,34,0.0,2.0,88,0.00,,,0.00,209.0,meteohub,2013-09-07 15:06:00,
2013-09-07 10:11:00,77.5,73.0,29.91,NE,42,3.0,3.0,86,0.00,,,0.00,403.0,meteohub,2013-09-07 15:11:00,
2013-09-07 10:16:00,78.3,73.4,29.91,NW,323,0.0,5.0,85,0.00,,,0.00,202.0,meteohub,2013-09-07 15:16:00,
2013-09-07 10:21:00,78.3,73.0,29.91,NW,323,0.0,5.0,84,0.00,,,0.00,383.0,meteohub,2013-09-07 15:21:00,
2013-09-07 10:26:00,78.4,73.9,29.91,NNE,15,1.0,5.0,86,0.00,,,0.00,425.0,meteohub,2013-09-07 15:26:00,
2013-09-07 10:31:00,79.2,73.6,29.91,North,0,0.0,3.0,83,0.00,,,0.00,387.0,meteohub,2013-09-07 15:31:00,
2013-09-07 10:36:00,79.2,73.6,29.91,NW,310,0.0,3.0,83,0.00,,,0.00,454.0,meteohub,2013-09-07 15:36:00,
2013-09-07 10:41:00,79.9,74.3,29.91,NNW,328,1.0,3.0,83,0.00,,,0.00,299.0,meteohub,2013-09-07 15:41:00,
2013-09-07 10:46:00,79.5,73.9,29.91,NNW,336,0.0,3.0,83,0.00,,,0.00,181.0,meteohub,2013-09-07 15:46:00,
2013-09-07 10:51:00,79.5,73.6,29.91,NW,307,0.0,3.0,82,0.00,,,0.00,320.0,meteohub,2013-09-07 15:51:00,
2013-09-07 10:56:00,80.1,74.1,29.91,SSE,155,0.0,3.0,82,0.00,,,0.00,422.0,meteohub,2013-09-07 15:56:00,
2013-09-07 11:01:00,80.8,73.6,29.91,NNE,16,0.0,4.0,79,0.00,,,0.00,381.0,meteohub,2013-09-07 16:01:00,
2013-09-07 11:06:00,81.3,73.8,29.91,NE,53,3.0,4.0,78,0.00,,,0.00,369.0,meteohub,2013-09-07 16:06:00,
2013-09-07 11:11:00,81.7,74.1,29.91,NNE,17,0.0,5.0,78,0.00,,,0.00,364.0,meteohub,2013-09-07 16:11:00,
2013-09-07 11:17:00,81.9,74.3,29.91,ENE,64,0.0,5.0,78,0.00,,,0.00,504.0,meteohub,2013-09-07 16:17:00,
2013-09-07 11:22:00,82.2,74.7,29.91,NE,37,1.0,5.0,78,0.00,,,0.00,359.0,meteohub,2013-09-07 16:22:00,
2013-09-07 11:27:00,82.4,75.2,29.91,North,5,1.0,4.0,79,0.00,,,0.00,366.0,meteohub,2013-09-07 16:27:00,
2013-09-07 11:32:00,83.5,76.6,29.91,NE,54,0.0,5.0,80,0.00,,,0.00,615.0,meteohub,2013-09-07 16:32:00,
2013-09-07 11:37:00,83.7,75.2,29.91,NNE,30,0.0,5.0,76,0.00,,,0.00,591.0,meteohub,2013-09-07 16:37:00,
2013-09-07 11:42:00,83.7,74.8,29.91,NNW,338,0.0,5.0,75,0.00,,,0.00,213.0,meteohub,2013-09-07 16:42:00,
2013-09-07 11:47:00,83.1,75.6,29.91,NW,309,0.0,4.0,78,0.00,,,0.00,559.0,meteohub,2013-09-07 16:47:00,
2013-09-07 11:52:00,83.8,74.3,29.91,NE,52,1.0,4.0,73,0.00,,,0.00,622.0,meteohub,2013-09-07 16:52:00,
2013-09-07 11:57:00,84.6,75.0,29.91,North,5,1.0,4.0,73,0.00,,,0.00,591.0,meteohub,2013-09-07 16:57:00,
2013-09-07 12:02:00,84.7,74.7,29.91,NNE,12,3.0,5.0,72,0.00,,,0.00,622.0,meteohub,2013-09-07 17:02:00,
2013-09-07 12:07:00,84.9,75.7,29.91,NNE,23,1.0,7.0,74,0.00,,,0.00,649.0,meteohub,2013-09-07 17:07:00,
2013-09-07 12:12:00,85.5,76.3,29.91,SSE,167,0.0,7.0,74,0.00,,,0.00,563.0,meteohub,2013-09-07 17:12:00,
2013-09-07 12:17:00,85.5,74.5,29.91,NE,43,1.0,7.0,70,0.00,,,0.00,679.0,meteohub,2013-09-07 17:17:00,
2013-09-07 12:22:00,85.8,73.9,29.91,NNE,28,0.0,5.0,68,0.00,,,0.00,571.0,meteohub,2013-09-07 17:22:00,
2013-09-07 12:27:00,85.8,74.5,29.91,North,5,2.0,5.0,69,0.00,,,0.00,563.0,meteohub,2013-09-07 17:27:00,
2013-09-07 12:32:00,86.0,74.7,29.90,North,11,0.0,5.0,69,0.00,,,0.00,612.0,meteohub,2013-09-07 17:32:00,
2013-09-07 12:37:00,86.5,73.8,29.90,NE,40,0.0,4.0,66,0.00,,,0.00,689.0,meteohub,2013-09-07 17:37:00,
2013-09-07 12:42:00,86.7,74.5,29.90,NNW,328,0.0,3.0,67,0.00,,,0.00,694.0,meteohub,2013-09-07 17:42:00,
2013-09-07 12:47:00,87.4,75.2,29.90,NNE,29,0.0,3.0,67,0.00,,,0.00,707.0,meteohub,2013-09-07 17:47:00,
2013-09-07 12:52:00,87.8,74.5,29.90,NNE,26,1.0,5.0,65,0.00,,,0.00,700.0,meteohub,2013-09-07 17:52:00,
2013-09-07 12:57:00,88.0,74.3,29.90,ENE,70,5.0,5.0,64,0.00,,,0.00,708.0,meteohub,2013-09-07 17:57:00,
2013-09-07 13:02:00,88.0,74.3,29.90,NE,51,0.0,5.0,64,0.00,,,0.00,712.0,meteohub,2013-09-07 18:02:00,
2013-09-07 13:07:00,87.6,74.8,29.89,SSW,201,0.0,5.0,66,0.00,,,0.00,747.0,meteohub,2013-09-07 18:07:00,
2013-09-07 13:12:00,88.5,74.8,29.89,WNW,298,3.0,5.0,64,0.00,,,0.00,791.0,meteohub,2013-09-07 18:12:00,
2013-09-07 13:17:00,88.2,73.9,29.90,NNE,28,1.0,5.0,63,0.00,,,0.00,759.0,meteohub,2013-09-07 18:17:00,
2013-09-07 13:22:00,88.3,74.1,29.90,NNE,30,0.0,5.0,63,0.00,,,0.00,577.0,meteohub,2013-09-07 18:22:00,
2013-09-07 13:27:00,87.4,73.2,29.90,WNW,302,2.0,5.0,63,0.00,,,0.00,295.0,meteohub,2013-09-07 18:27:00,
2013-09-07 13:32:00,86.5,72.5,29.90,NNE,32,0.0,4.0,63,0.00,,,0.00,362.0,meteohub,2013-09-07 18:32:00,
2013-09-07 13:37:00,87.1,74.3,29.90,NE,40,1.0,4.0,66,0.00,,,0.00,659.0,meteohub,2013-09-07 18:37:00,
2013-09-07 13:42:00,88.0,74.3,29.90,NNE,19,1.0,5.0,64,0.00,,,0.00,712.0,meteohub,2013-09-07 18:42:00,
2013-09-07 13:47:00,87.6,73.9,29.90,NNW,328,1.0,5.0,64,0.00,,,0.00,675.0,meteohub,2013-09-07 18:47:00,
2013-09-07 13:52:00,88.2,73.9,29.90,NNW,346,1.0,7.0,63,0.00,,,0.00,663.0,meteohub,2013-09-07 18:52:00,
2013-09-07 13:57:00,88.5,73.8,29.90,ENE,66,4.0,7.0,62,0.00,,,0.00,671.0,meteohub,2013-09-07 18:57:00,
2013-09-07 14:02:00,88.2,74.8,29.90,NNW,336,0.0,6.0,65,0.00,,,0.00,666.0,meteohub,2013-09-07 19:02:00,
2013-09-07 14:07:00,88.9,73.8,29.90,NE,40,0.0,6.0,61,0.00,,,0.00,659.0,meteohub,2013-09-07 19:07:00,
2013-09-07 14:12:00,88.5,72.3,29.90,NE,41,1.0,5.0,59,0.00,,,0.00,640.0,meteohub,2013-09-07 19:12:00,
2013-09-07 14:17:00,88.5,74.3,29.91,NNE,33,0.0,3.0,63,0.00,,,0.00,642.0,meteohub,2013-09-07 19:17:00,
2013-09-07 14:22:00,88.5,74.3,29.91,ESE,115,1.0,3.0,63,0.00,,,0.00,603.0,meteohub,2013-09-07 19:22:00,
2013-09-07 14:27:00,89.2,74.5,29.91,NNE,29,0.0,2.0,62,0.00,,,0.00,671.0,meteohub,2013-09-07 19:27:00,
2013-09-07 14:32:00,88.7,71.4,29.91,WNW,303,0.0,5.0,57,0.00,,,0.00,703.0,meteohub,2013-09-07 19:32:00,
2013-09-07 14:37:00,89.1,73.9,29.90,NE,51,0.0,5.0,61,0.00,,,0.00,689.0,meteohub,2013-09-07 19:37:00,
2013-09-07 14:42:00,88.9,73.2,29.90,ENE,59,0.0,5.0,60,0.00,,,0.00,670.0,meteohub,2013-09-07 19:42:00,
2013-09-07 14:47:00,89.1,73.9,29.90,West,276,0.0,3.0,61,0.00,,,0.00,659.0,meteohub,2013-09-07 19:47:00,
2013-09-07 14:52:00,88.9,72.7,29.90,NNW,327,1.0,3.0,59,0.00,,,0.00,624.0,meteohub,2013-09-07 19:52:00,
2013-09-07 14:57:00,88.7,73.0,29.90,SE,146,0.0,3.0,60,0.00,,,0.00,631.0,meteohub,2013-09-07 19:57:00,
2013-09-07 15:02:00,89.1,72.9,29.90,NNE,31,1.0,3.0,59,0.00,,,0.00,636.0,meteohub,2013-09-07 20:02:00,
2013-09-07 15:07:00,89.1,71.8,29.90,NE,50,0.0,3.0,57,0.00,,,0.00,628.0,meteohub,2013-09-07 20:07:00,
2013-09-07 15:12:00,89.2,73.0,29.90,North,5,0.0,4.0,59,0.00,,,0.00,621.0,meteohub,2013-09-07 20:12:00,
2013-09-07 15:17:00,89.1,73.9,29.90,East,92,0.0,4.0,61,0.00,,,0.00,278.0,meteohub,2013-09-07 20:17:00,
2013-09-07 15:22:00,89.2,73.6,29.90,NE,55,1.0,3.0,60,0.00,,,0.00,541.0,meteohub,2013-09-07 20:22:00,
2013-09-07 15:27:00,89.2,72.0,29.90,NW,324,0.0,3.0,57,0.00,,,0.00,547.0,meteohub,2013-09-07 20:27:00,
2013-09-07 15:32:00,89.1,72.3,29.89,NNE,24,1.0,3.0,58,0.00,,,0.00,323.0,meteohub,2013-09-07 20:32:00,
2013-09-07 15:37:00,88.9,72.7,29.89,NE,41,1.0,4.0,59,0.00,,,0.00,557.0,meteohub,2013-09-07 20:37:00,
2013-09-07 15:42:00,88.9,71.6,29.89,North,5,2.0,4.0,57,0.00,,,0.00,461.0,meteohub,2013-09-07 20:42:00,
2013-09-07 15:47:00,88.5,71.4,29.89,South,172,0.0,4.0,57,0.00,,,0.00,260.0,meteohub,2013-09-07 20:47:00,
2013-09-07 15:52:00,88.2,73.0,29.90,ENE,78,0.0,3.0,61,0.00,,,0.00,288.0,meteohub,2013-09-07 20:52:00,
2013-09-07 15:57:00,88.3,72.1,29.90,NW,306,2.0,3.0,59,0.00,,,0.00,345.0,meteohub,2013-09-07 20:57:00,
2013-09-07 16:02:00,88.2,72.0,29.90,WNW,297,1.0,3.0,59,0.00,,,0.00,83.0,meteohub,2013-09-07 21:02:00,
2013-09-07 16:07:00,88.0,71.4,29.90,West,269,0.0,3.0,58,0.00,,,0.00,83.0,meteohub,2013-09-07 21:07:00,
2013-09-07 16:12:00,87.6,71.6,29.89,ENE,63,0.0,3.0,59,0.00,,,0.00,83.0,meteohub,2013-09-07 21:12:00,
2013-09-07 16:17:00,87.4,71.4,29.89,ENE,63,0.0,2.0,59,0.00,,,0.00,67.0,meteohub,2013-09-07 21:17:00,
2013-09-07 16:22:00,87.4,72.9,29.89,ENE,62,0.0,2.0,62,0.00,,,0.00,70.0,meteohub,2013-09-07 21:22:00,
2013-09-07 16:27:00,87.6,73.9,29.89,ENE,63,0.0,1.0,64,0.00,,,0.00,67.0,meteohub,2013-09-07 21:27:00,
2013-09-07 16:32:00,88.0,72.3,29.89,NW,304,1.0,1.0,60,0.00,,,0.00,95.0,meteohub,2013-09-07 21:32:00,
2013-09-07 16:37:00,87.8,71.2,29.90,NNW,333,1.0,2.0,58,0.00,,,0.00,132.0,meteohub,2013-09-07 21:37:00,
2013-09-07 16:42:00,88.2,72.0,29.89,ENE,77,0.0,2.0,59,0.00,,,0.00,65.0,meteohub,2013-09-07 21:42:00,
2013-09-07 16:47:00,87.6,72.5,29.89,ESE,109,0.0,2.0,61,0.00,,,0.00,88.0,meteohub,2013-09-07 21:47:00,
2013-09-07 16:52:00,87.6,71.6,29.89,NE,47,0.0,2.0,59,0.00,,,0.00,109.0,meteohub,2013-09-07 21:52:00,
2013-09-07 16:57:00,87.6,72.5,29.89,WNW,299,0.0,4.0,61,0.00,,,0.00,63.0,meteohub,2013-09-07 21:57:00,
2013-09-07 17:02:00,87.1,71.4,29.89,NNW,328,0.0,4.0,60,0.00,,,0.00,60.0,meteohub,2013-09-07 22:02:00,
2013-09-07 17:07:00,87.4,74.3,29.89,North,11,0.0,4.0,65,0.00,,,0.00,83.0,meteohub,2013-09-07 22:07:00,
2013-09-07 17:12:00,86.7,72.1,29.89,ENE,62,0.0,2.0,62,0.00,,,0.00,88.0,meteohub,2013-09-07 22:12:00,
2013-09-07 17:17:00,86.7,71.6,29.89,WNW,302,1.0,2.0,61,0.00,,,0.00,100.0,meteohub,2013-09-07 22:17:00,
2013-09-07 17:22:00,87.3,73.6,29.90,NW,315,0.0,2.0,64,0.00,,,0.00,98.0,meteohub,2013-09-07 22:22:00,
2013-09-07 17:27:00,86.5,72.0,29.89,NW,319,0.0,2.0,62,0.00,,,0.00,76.0,meteohub,2013-09-07 22:27:00,
2013-09-07 17:33:00,85.6,73.0,29.89,NW,319,0.0,2.0,66,0.00,,,0.00,58.0,meteohub,2013-09-07 22:33:00,
2013-09-07 17:38:00,85.1,73.8,29.89,NW,319,0.0,1.0,69,0.00,,,0.00,84.0,meteohub,2013-09-07 22:38:00,
2013-09-07 17:43:00,84.9,72.7,29.90,NW,319,0.0,0.0,67,0.00,,,0.00,60.0,meteohub,2013-09-07 22:43:00,
2013-09-07 17:48:00,84.7,72.5,29.90,NW,319,0.0,0.0,67,0.00,,,0.00,93.0,meteohub,2013-09-07 22:48:00,
2013-09-07 17:53:00,84.9,73.6,29.90,NW,319,0.0,0.0,69,0.00,,,0.00,60.0,meteohub,2013-09-07 22:53:00,
2013-09-07 17:58:00,84.7,73.4,29.90,NW,319,0.0,0.0,69,0.00,,,0.00,44.0,meteohub,2013-09-07 22:58:00,
2013-09-07 18:03:00,84.7,73.9,29.91,NW,319,0.0,1.0,70,0.00,,,0.00,40.0,meteohub,2013-09-07 23:03:00,
2013-09-07 18:08:00,85.3,73.0,29.91,NE,34,0.0,1.0,67,0.00,,,0.00,39.0,meteohub,2013-09-07 23:08:00,
2013-09-07 18:13:00,85.3,73.6,29.91,NE,34,0.0,2.0,68,0.00,,,0.00,37.0,meteohub,2013-09-07 23:13:00,
2013-09-07 18:18:00,85.1,73.4,29.90,NE,34,0.0,2.0,68,0.00,,,0.00,37.0,meteohub,2013-09-07 23:18:00,
2013-09-07 18:23:00,84.9,73.6,29.91,WNW,292,3.0,3.0,69,0.00,,,0.00,39.0,meteohub,2013-09-07 23:23:00,
2013-09-07 18:28:00,84.6,73.2,29.91,WNW,300,0.0,2.0,69,0.00,,,0.00,58.0,meteohub,2013-09-07 23:28:00,
2013-09-07 18:33:00,84.0,73.6,29.91,WNW,300,0.0,3.0,71,0.00,,,0.00,32.0,meteohub,2013-09-07 23:33:00,
2013-09-07 18:38:00,83.7,73.6,29.91,WNW,300,0.0,3.0,72,0.00,,,0.00,33.0,meteohub,2013-09-07 23:38:00,
2013-09-07 18:43:00,83.1,73.6,29.91,WNW,300,0.0,1.0,73,0.00,,,0.00,32.0,meteohub,2013-09-07 23:43:00,
2013-09-07 18:48:00,82.6,73.0,29.90,WNW,300,0.0,0.0,73,0.00,,,0.00,26.0,meteohub,2013-09-07 23:48:00,
2013-09-07 18:53:00,82.0,72.5,29.90,WNW,300,0.0,0.0,73,0.00,,,0.00,23.0,meteohub,2013-09-07 23:53:00,
2013-09-07 18:58:00,81.7,73.0,29.90,WNW,300,0.0,0.0,75,0.00,,,0.00,18.0,meteohub,2013-09-07 23:58:00,
2013-09-07 19:03:00,81.1,72.5,29.90,WNW,300,0.0,0.0,75,0.00,,,0.00,19.0,meteohub,2013-09-08 00:03:00,
2013-09-07 19:08:00,81.0,72.7,29.91,WNW,300,0.0,0.0,76,0.00,,,0.00,18.0,meteohub,2013-09-08 00:08:00,
2013-09-07 19:13:00,80.6,72.7,29.91,WNW,300,0.0,0.0,77,0.00,,,0.00,16.0,meteohub,2013-09-08 00:13:00,
2013-09-07 19:18:00,80.2,72.3,29.91,WNW,300,0.0,0.0,77,0.00,,,0.00,14.0,meteohub,2013-09-08 00:18:00,
2013-09-07 19:23:00,80.2,72.3,29.91,WNW,300,0.0,0.0,77,0.00,,,0.00,14.0,meteohub,2013-09-08 00:23:00,
2013-09-07 19:28:00,80.1,72.5,29.91,WNW,300,0.0,0.0,78,0.00,,,0.00,12.0,meteohub,2013-09-08 00:28:00,
2013-09-07 19:33:00,79.7,72.7,29.91,WNW,300,0.0,0.0,79,0.00,,,0.00,11.0,meteohub,2013-09-08 00:33:00,
2013-09-07 19:38:00,79.3,72.3,29.91,WNW,300,0.0,0.0,79,0.00,,,0.00,9.0,meteohub,2013-09-08 00:38:00,
2013-09-07 19:43:00,79.2,72.5,29.91,WNW,300,0.0,0.0,80,0.00,,,0.00,9.0,meteohub,2013-09-08 00:43:00,
2013-09-07 19:48:00,79.0,72.3,29.91,WNW,300,0.0,0.0,80,0.00,,,0.00,11.0,meteohub,2013-09-08 00:48:00,
2013-09-07 19:53:00,78.6,72.3,29.91,WNW,300,0.0,0.0,81,0.00,,,0.00,7.0,meteohub,2013-09-08 00:53:00,
2013-09-07 19:58:00,78.4,72.1,29.91,WNW,300,0.0,0.0,81,0.00,,,0.00,0.0,meteohub,2013-09-08 00:58:00,
2013-09-07 20:03:00,78.3,72.0,29.91,WNW,300,0.0,0.0,81,0.00,,,0.00,0.0,meteohub,2013-09-08 01:03:00,
2013-09-07 20:08:00,78.3,72.0,29.91,WNW,300,0.0,0.0,81,0.00,,,0.00,0.0,meteohub,2013-09-08 01:08:00,
2013-09-07 20:13:00,78.1,71.8,29.91,WNW,300,0.0,0.0,81,0.00,,,0.00,0.0,meteohub,2013-09-08 01:13:00,
2013-09-07 20:18:00,77.9,72.0,29.91,WNW,300,0.0,0.0,82,0.00,,,0.00,0.0,meteohub,2013-09-08 01:18:00,
2013-09-07 20:24:00,77.5,72.0,29.92,WNW,300,0.0,0.0,83,0.00,,,0.00,0.0,meteohub,2013-09-08 01:24:00,
2013-09-07 20:29:00,77.2,71.6,29.92,WNW,300,0.0,1.0,83,0.00,,,0.00,0.0,meteohub,2013-09-08 01:29:00,
2013-09-07 20:34:00,77.0,71.4,29.92,WNW,300,0.0,1.0,83,0.00,,,0.00,0.0,meteohub,2013-09-08 01:34:00,
2013-09-07 20:39:00,76.6,71.4,29.92,WNW,300,0.0,1.0,84,0.00,,,0.00,0.0,meteohub,2013-09-08 01:39:00,
2013-09-07 20:44:00,76.6,71.8,29.92,WNW,300,0.0,0.0,85,0.00,,,0.00,0.0,meteohub,2013-09-08 01:44:00,
2013-09-07 20:49:00,77.0,71.8,29.93,WNW,300,0.0,0.0,84,0.00,,,0.00,0.0,meteohub,2013-09-08 01:49:00,
2013-09-07 20:54:00,77.2,72.0,29.92,WNW,300,0.0,1.0,84,0.00,,,0.00,0.0,meteohub,2013-09-08 01:54:00,
2013-09-07 20:59:00,77.4,72.1,29.93,NW,317,0.0,1.0,84,0.00,,,0.00,0.0,meteohub,2013-09-08 01:59:00,
2013-09-07 21:04:00,77.0,72.1,29.93,NW,317,0.0,2.0,85,0.00,,,0.00,0.0,meteohub,2013-09-08 02:04:00,
2013-09-07 21:09:00,76.6,71.8,29.92,NW,317,0.0,2.0,85,0.00,,,0.00,0.0,meteohub,2013-09-08 02:09:00,
2013-09-07 21:14:00,76.5,72.0,29.92,NW,317,0.0,2.0,86,0.00,,,0.00,0.0,meteohub,2013-09-08 02:14:00,
2013-09-07 21:19:00,75.9,71.4,29.92,NW,317,0.0,1.0,86,0.00,,,0.00,0.0,meteohub,2013-09-08 02:19:00,
2013-09-07 21:24:00,75.7,71.6,29.92,NW,317,0.0,1.0,87,0.00,,,0.00,0.0,meteohub,2013-09-08 02:24:00,
2013-09-07 21:29:00,75.4,71.2,29.92,NW,317,0.0,1.0,87,0.00,,,0.00,0.0,meteohub,2013-09-08 02:29:00,
2013-09-07 21:34:00,75.2,71.4,29.92,NW,317,0.0,0.0,88,0.00,,,0.00,0.0,meteohub,2013-09-08 02:34:00,
2013-09-07 21:39:00,74.8,71.1,29.93,NW,317,0.0,0.0,88,0.00,,,0.00,0.0,meteohub,2013-09-08 02:39:00,
2013-09-07 21:44:00,74.7,70.9,29.93,NW,317,0.0,0.0,88,0.00,,,0.00,0.0,meteohub,2013-09-08 02:44:00,
2013-09-07 21:49:00,74.7,70.9,29.93,NW,317,0.0,0.0,88,0.00,,,0.00,0.0,meteohub,2013-09-08 02:49:00,
2013-09-07 21:54:00,74.5,70.7,29.93,NW,315,0.0,0.0,88,0.00,,,0.00,0.0,meteohub,2013-09-08 02:54:00,
2013-09-07 21:59:00,74.1,70.3,29.93,NW,315,0.0,0.0,88,0.00,,,0.00,0.0,meteohub,2013-09-08 02:59:00,
2013-09-07 22:04:00,74.1,70.7,29.93,NW,315,0.0,0.0,89,0.00,,,0.00,0.0,meteohub,2013-09-08 03:04:00,
2013-09-07 22:09:00,73.9,70.5,29.94,NW,315,0.0,0.0,89,0.00,,,0.00,0.0,meteohub,2013-09-08 03:09:00,
2013-09-07 22:14:00,73.9,70.5,29.94,NW,315,0.0,0.0,89,0.00,,,0.00,0.0,meteohub,2013-09-08 03:14:00,
2013-09-07 22:19:00,73.8,70.3,29.94,NW,315,0.0,0.0,89,0.00,,,0.00,0.0,meteohub,2013-09-08 03:19:00,
2013-09-07 22:24:00,73.8,70.3,29.94,NW,315,0.0,0.0,89,0.00,,,0.00,0.0,meteohub,2013-09-08 03:24:00,
2013-09-07 22:29:00,73.6,70.2,29.94,NW,315,0.0,0.0,89,0.00,,,0.00,0.0,meteohub,2013-09-08 03:29:00,
2013-09-07 22:34:00,73.6,70.2,29.94,NW,315,0.0,0.0,89,0.00,,,0.00,0.0,meteohub,2013-09-08 03:34:00,
2013-09-07 22:39:00,73.2,69.8,29.94,NW,315,0.0,0.0,89,0.00,,,0.00,0.0,meteohub,2013-09-08 03:39:00,
2013-09-07 22:44:00,73.2,69.8,29.94,NW,315,0.0,0.0,89,0.00,,,0.00,0.0,meteohub,2013-09-08 03:44:00,
2013-09-07 22:49:00,73.0,70.0,29.94,NW,315,0.0,0.0,90,0.00,,,0.00,0.0,meteohub,2013-09-08 03:49:00,
2013-09-07 22:54:00,72.9,69.8,29.94,NW,315,0.0,0.0,90,0.00,,,0.00,0.0,meteohub,2013-09-08 03:54:00,
2013-09-07 22:59:00,72.9,69.8,29.94,NW,315,0.0,0.0,90,0.00,,,0.00,0.0,meteohub,2013-09-08 03:59:00,
2013-09-07 23:01:00,72.7,69.6,29.94,NW,315,0.0,0.0,90,0.00,,,0.00,0.0,meteohub,2013-09-08 04:01:00,
2013-09-07 23:02:00,72.7,69.6,29.94,NW,315,0.0,0.0,90,0.00,,,0.00,0.0,meteohub,2013-09-08 04:02:00,
2013-09-07 23:04:00,72.7,69.6,29.94,NW,315,0.0,0.0,90,0.00,,,0.00,0.0,meteohub,2013-09-08 04:04:00,
2013-09-07 23:09:00,72.7,70.0,29.94,NW,315,0.0,0.0,91,0.00,,,0.00,0.0,meteohub,2013-09-08 04:09:00,
2013-09-07 23:14:00,72.5,69.8,29.95,NW,315,0.0,0.0,91,0.00,,,0.00,0.0,meteohub,2013-09-08 04:14:00,
2013-09-07 23:19:00,72.3,69.6,29.95,NW,315,0.0,0.0,91,0.00,,,0.00,0.0,meteohub,2013-09-08 04:19:00,
2013-09-07 23:24:00,72.3,69.8,29.95,NW,315,0.0,0.0,92,0.00,,,0.00,0.0,meteohub,2013-09-08 04:24:00,
2013-09-07 23:29:00,72.3,69.8,29.95,NW,315,0.0,0.0,92,0.00,,,0.00,0.0,meteohub,2013-09-08 04:29:00,
2013-09-07 23:34:00,72.3,69.8,29.95,NW,315,0.0,0.0,92,0.00,,,0.00,0.0,meteohub,2013-09-08 04:34:00,
2013-09-07 23:39:00,72.1,69.6,29.95,NW,315,0.0,0.0,92,0.00,,,0.00,0.0,meteohub,2013-09-08 04:39:00,
2013-09-07 23:44:00,72.0,69.4,29.95,NW,315,0.0,1.0,92,0.00,,,0.00,0.0,meteohub,2013-09-08 04:44:00,
2013-09-07 23:49:00,72.0,69.4,29.96,NW,315,0.0,1.0,92,0.00,,,0.00,0.0,meteohub,2013-09-08 04:49:00,
2013-09-07 23:54:00,71.8,69.3,29.96,NW,315,0.0,1.0,92,0.00,,,0.00,0.0,meteohub,2013-09-08 04:54:00,
2013-09-07 23:59:00,71.8,69.3,29.95,NW,315,0.0,0.0,92,0.00,,,0.00,0.0,meteohub,2013-09-08 04:59:00,